Pian Rosa, Italy

11:47 AM CET on December 13, 2017 (GMT +0100)
Pian Rosa

Weather History for LIMH - January, 2013

Change the Weather History Date:

Thursday, January 17, 2013

  Actual Average Record
Temperature  
Mean Temperature -6 °F -  
Max Temperature -1 °F 17 °F 24 °F (2009)
Min Temperature -11 °F 6 °F -13 °F (2017)
Degree Days  
Heating Degree Days 71    
Moisture  
Dew Point -10 °F    
Average Humidity 81    
Maximum Humidity 85    
Minimum Humidity 70    
Precipitation  
Precipitation 0.00 in - - ()
Sea Level Pressure  
Sea Level Pressure 29.14 in    
Wind  
Wind Speed 23 mph ()    
Max Wind Speed 41 mph    
Max Gust Speed -    
Visibility 3.8 miles    
Events Fog    
Averages and records for this station are not official NWS values.
T = Trace of Precipitation, MM = Missing Value Source: Averaged Metar Reports

Daily Weather History Graph

Daily Weather History Graph

Search for Another Location

Airport or City:

Trip Planner

Search our weather history database for the weather conditions in past years. The results will help you decide how hot, cold, wet, or windy it might be!

Date:

Astronomy

Jan. 17, 2013 Rise Set
Actual Time 8:05 AM CET 5:13 PM CET
Civil Twilight 7:32 AM CET 5:46 PM CET
Nautical Twilight 6:55 AM CET 6:23 PM CET
Astronomical Twilight 6:19 AM CET 6:59 PM CET
Moon 10:41 AM CET (1/17) No Moon Set
Length of Visible Light 10h 14m
Length of Day
9h 07m
Waxing Crescent, 35% of the Moon is Illuminated
Jan 17
Waxing Crescent
Jan 19
First Quarter
Jan 27
Full
Feb 3
Last Quarter
Feb 10
New

Hourly Weather History & Observations

Time (CET) Temp. Windchill Dew Point Humidity Pressure Visibility Wind Dir Wind Speed Gust Speed Precip Events Conditions
12:55 AM -11.2 °F -42.3 °F -14.8 °F 84% 28.97 in - ENE 33.4 mph - N/A   Clear
1:00 AM -11 °F - -16 °F 70%  in 7 mi ENE 33.4 mph - -  
2:55 AM -11.2 °F -44.8 °F -14.8 °F 84% 28.97 in - ENE 41.4 mph - N/A   Clear
3:55 AM -11.2 °F -44.8 °F -14.8 °F 84% 28.97 in 0.5 mi ENE 41.4 mph - N/A Fog Light Freezing Fog
4:00 AM -11 °F - -15 °F 71%  in 0 mi ENE 41.4 mph - - Fog Heavy Fog
4:55 AM -9.4 °F -42.2 °F -13.0 °F 84% 29.00 in 0.5 mi ENE 41.4 mph - N/A Fog Light Freezing Fog
5:55 AM -7.6 °F -30.5 °F -13.0 °F 77% 29.03 in 0.5 mi ENE 17.3 mph - N/A Fog Light Freezing Fog
6:55 AM -9.4 °F -33.5 °F -13.0 °F 84% 29.06 in 0.5 mi ENE 18.4 mph - N/A Fog Light Freezing Fog
7:00 AM -9 °F - -14 °F 70%  in 0 mi ENE 18.4 mph - - Fog Heavy Fog
8:55 AM -5.8 °F -28.2 °F -9.4 °F 84% 29.15 in 0.5 mi ENE 17.3 mph - N/A Fog Light Freezing Fog
9:55 AM -4.0 °F -25.8 °F -9.4 °F 78% 29.15 in 6.2 mi ENE 17.3 mph - N/A   Partly Cloudy
10:00 AM -5 °F - -9 °F 75%  in 19 mi ENE 17.3 mph - - Fog Light Fog
10:55 AM -2.2 °F -23.5 °F -7.6 °F 78% 29.15 in 6.2 mi ENE 17.3 mph - N/A   Partly Cloudy
11:55 AM -2.2 °F -23.5 °F -7.6 °F 78% 29.15 in 6.2 mi ENE 17.3 mph - N/A   Partly Cloudy
12:55 PM -4.0 °F -25.8 °F -7.6 °F 85% 29.15 in 6.2 mi ENE 17.3 mph - N/A   Partly Cloudy
1:00 PM -4 °F - -8 °F 76%  in 12 mi ENE 17.3 mph - -   Partly Cloudy
1:55 PM -4.0 °F -25.2 °F -7.6 °F 85% 29.15 in 6.2 mi ENE 16.1 mph - N/A   Partly Cloudy
2:55 PM -4.0 °F -25.8 °F -7.6 °F 85% 29.18 in 6.2 mi ENE 17.3 mph - N/A   Partly Cloudy
3:55 PM -2.2 °F -20.7 °F -5.8 °F 85% 29.18 in 6.2 mi ENE 12.7 mph - N/A   Partly Cloudy
4:00 PM -3 °F - -6 °F 79%  in 6 mi ENE 12.7 mph - -   Scattered Clouds
4:55 PM -4.0 °F -22.1 °F -7.6 °F 85% 29.18 in 6.2 mi ENE 11.5 mph - N/A   Partly Cloudy
5:55 PM -5.8 °F -24.4 °F -9.4 °F 84% 29.21 in 6.2 mi ENE 11.5 mph - N/A   Partly Cloudy
6:55 PM -5.8 °F -23.4 °F -9.4 °F 84% 29.21 in 0.5 mi ENE 10.4 mph - N/A Fog Light Freezing Fog
7:00 PM -5 °F - -9 °F 74%  in 0 mi ENE 10.4 mph - - Fog Heavy Fog
7:55 PM -2.2 °F -18.9 °F -5.8 °F 85% 29.21 in 0.5 mi ENE 10.4 mph - N/A Fog Light Freezing Fog
8:55 PM -4.0 °F -21.2 °F -7.6 °F 85% 29.24 in 0.5 mi NE 10.4 mph - N/A Fog Light Freezing Fog
9:55 PM -4.0 °F -30.4 °F -7.6 °F 85% 29.24 in 0.5 mi NE 27.6 mph - N/A Fog Light Freezing Fog
10:00 PM -3 °F - -7 °F 73%  in 0 mi NE 27.6 mph - - Fog Heavy Fog
10:55 PM -2.2 °F -28.8 °F -5.8 °F 85% 29.24 in 0.5 mi NE 29.9 mph - N/A Fog Light Freezing Fog
11:55 PM -2.2 °F -29.2 °F -5.8 °F 85% 29.24 in 0.5 mi NE 31.1 mph - N/A Fog Light Freezing Fog